User: anonymous   Login
Location: Knowlton
(51.2333°N, 1.2667°E)
Time: 15:41:15
(UTC+00:00)
Language:

Cosmos 2058 Rocket - Orbit

View from above orbital plane
View from above orbital plane
View from above satellite
View from above satellite

Ground track
Ground track

The orbit data is extracted from the following two-line orbital elements,

1 20466U 90010B   21168.62570252  .00000083  00000-0  75793-5 0  9992
2 20466  82.5039  85.0250 0019558 214.4360 145.5588 14.81426695672798
Epoch (UTC): 17 June 2021 15:01:00
Eccentricity: 0.0019558
inclination: 82.5039°
perigee height: 611 km
apogee height: 638 km
right ascension of ascending node: 85.0250°
argument of perigee: 214.4360°
revolutions per day: 14.81426695
mean anomaly at epoch: 145.5588°
orbit number at epoch: 67279

The dashed part of the orbit path shows where the satellite is in the earth's shadow,  

DLR